Location: Chassagnes
(44.4047°N, 4.1657°E)
Time: 12:34:28
(UTC+00:00)

Cosmos 1354 Rocket - Pass Details

Date: 27 October 2020
Orbit: 764 x 783 km, 74.0° (Epoch: 23 November)

Event Time Altitude Azimuth Distance (km) Brightness Sun altitude
Rises 18:39:05 0° 340° (NNW) 3,247 7.5 -21.9°
Reaches altitude 10° 18:41:28 10° 342° (NNW) 2,318 6.7 -22.4°
Maximum altitude 18:46:44 74° 68° (ENE) 804 3.9 -23.3°
Enters shadow 18:47:53 54° 135° (SE) 932 4.1 -23.5°
